STARLINK-31470, 59569

Orbit data source: Space-Track

STARLINK-31470, 59569 is a payload satellite owned by SpaceX/Seattle (US) in LEO that was launched on Tue, 23 Apr 2024 UTC via an FALCON 9 launch vehicle from the Air Force Eastern Test Range (AFETR). Payload-class satellites include a variety of spacecraft equipped with specific instruments for various scientific and technological missions. These include communications satellites like Starlink; space stations such as the ISS; scientific satellites like the Hubble; Earth observation satellites from companies like Planet Labs, Umbra, and HawkEye 360; GPS; miniature CubeSats for education and research; and military/defense satellites.

Loading next visibility...
Identifier
59569, 2024-076F
Orbit
LEO
Country
Flag of USUS
Related business
Manufacturer
SpaceX/Seattle
Mission
Operational Commercial Communications
Bus & Motor
STARLINK V2M, Unknown motor
Mass
730 kg wet, ~700 kg dry
Launch date (UTC)
2024-04-23 (2 years ago)
Launch vehicle
FALCON 9
Launch site
Air Force Eastern Test Range (AFETR)
Object type
Payload
Rocket body
Debris
Shape & HBR
Box + 2 Pan, 17.7 m
Radar Cross Section
33.884 m², Large (>1 m²)

Expand to show TLE details & history
Last TLE update: 22 hours ago

TLE from 22 hours ago
0 STARLINK-31470
1 59569U 24076F   25348.69765765 -.00002151  00000-0 -68705-4 0  9997
2 59569  42.9999 125.5894 0001115 273.4851  86.5873 15.27560621 93453
Epoch: 2025-12-14T16:44Z
TLE epoch observation values (Epoch: 2025-12-14T16:44:37.620Z)
Latitude
-0.00005°
Longitude
150.82575°
Altitude
482.837 km
Speed
7.626 km/s
True Right ascension
08h 22m 21s
True Declination
0° 00' 00"
Sunlit
Object was in full shadow at epoch
Visualization orbit readout
Latitude
Unknown
Longitude
Unknown
Altitude
Unknown
Speed
Unknown
Apparent Right ascension
Unknown
Apparent Declination
Unknown
Sunlit
N/A
Visualization observer readout
Local Sidereal Time
13:24:32
Azimuth
Unknown
Elevation
Unknown
Doppler factor
Unknown
Orbital elements
Apogee altitude
485.818 km
Perigee altitude
484.287 km
Semi-major axis
6,863.189 km
Eccentricity
0.00011
Inclination
42.9999°
RAAN
125.5894°
Arg. of periapsis
273.4851°
True anomaly
86.60005°
Mean anomaly
86.5873°
Eccentric anomaly
86.59368°
Mean motion
3.81728 °/min
Orbital period
94.31 mins
BSTAR
-0.000068705
Loading maneuver chart data...
Computing Atmospheric mass density...
Loading historical data...
Loading historical data...
Loading historical data...
Loading historical data...
Loading historical data...
Loading historical data...
Loading historical data...

Documentation

Showing up to 5 results
|